South Haven, MI

5:05 PM EDT on April 20, 2018 (GMT -0400)
South Haven

Weather History for KLWA - March, 2013

Change the Weather History Date:

Saturday, March 30, 2013

  Actual Average (KBEH) Record (KBEH)
Temperature  
Mean Temperature 38 °F -  
Max Temperature 56 °F 49 °F 80 °F (1963)
Min Temperature 20 °F 32 °F 11 °F (1954)
Degree Days  
Heating Degree Days 27    
Moisture  
Dew Point 26 °F    
Average Humidity 62    
Maximum Humidity 99    
Minimum Humidity 26    
Precipitation  
Precipitation 0.00 in - - ()
Sea Level Pressure  
Sea Level Pressure 30.09 in    
Wind  
Wind Speed 3 mph (SSW)    
Max Wind Speed 13 mph    
Max Gust Speed 20 mph    
Visibility 8 miles    
Events Fog , Snow    
Averages and records for this station are not official NWS values.
T = Trace of Precipitation, MM = Missing Value Source: NWS Daily Summary

Daily Weather History Graph

Daily Weather History Graph

Search for Another Location

Airport or City:

Astronomy

Mar. 30, 2013 Rise Set
Actual Time 7:30 AM EDT 8:08 PM EDT
Civil Twilight 7:02 AM EDT 8:37 PM EDT
Nautical Twilight 6:28 AM EDT 9:10 PM EDT
Astronomical Twilight 5:54 AM EDT 9:45 PM EDT
Moon No Moon Rise 9:20 AM EDT (3/30)
Length of Visible Light 13h 34m
Length of Day
12h 38m
Waning Gibbous, 86% of the Moon is Illuminated
Mar 30
Waning Gibbous
Apr 3
Last Quarter
Apr 10
New
Apr 18
First Quarter
Apr 25
Full

Hourly Weather History & Observations

Time (EDT) Temp. Windchill Dew Point Humidity Pressure Visibility Wind Dir Wind Speed Gust Speed Precip Events Conditions
12:15 AM 26.2 °F - 24.6 °F 94% 30.24 in 7.0 mi Calm Calm - N/A   Clear
12:35 AM 25.9 °F - 24.6 °F 95% 30.24 in 7.0 mi Calm Calm - N/A   Clear
12:55 AM 25.5 °F - 23.9 °F 94% 30.24 in 7.0 mi Calm Calm - N/A   Clear
1:15 AM 25.0 °F - 23.5 °F 94% 30.24 in 7.0 mi Calm Calm - N/A   Scattered Clouds
1:35 AM 25.0 °F - 23.5 °F 94% 30.24 in 5.0 mi Calm Calm - N/A   Overcast
2:15 AM 25.3 °F - 24.6 °F 97% 30.24 in 0.2 mi Calm Calm - N/A Fog Light Freezing Fog
2:35 AM 26.8 °F - 26.1 °F 97% 30.24 in 0.2 mi Calm Calm - N/A Fog Light Freezing Fog
2:55 AM 28.0 °F - 27.5 °F 98% 30.24 in 0.2 mi Calm Calm - N/A Fog Light Freezing Fog
3:15 AM 27.5 °F - 27.1 °F 99% 30.24 in 0.2 mi Calm Calm - N/A Fog Light Freezing Fog
3:34 AM 26.8 °F - 26.4 °F 99% 30.23 in 0.2 mi Calm Calm - N/A Snow Light Snow
3:55 AM 25.9 °F - 25.5 °F 99% 30.23 in 0.2 mi Calm Calm - N/A Fog Light Freezing Fog
4:15 AM 24.8 °F - 24.4 °F 99% 30.22 in 0.2 mi Calm Calm - N/A Fog Light Freezing Fog
4:35 AM 24.4 °F - 23.9 °F 98% 30.22 in 0.5 mi Calm Calm - N/A Fog Light Freezing Fog
4:55 AM 23.5 °F - 22.8 °F 97% 30.21 in 5.0 mi Calm Calm - N/A   Scattered Clouds
5:14 AM 23.5 °F - 22.8 °F 97% 30.21 in 7.0 mi Calm Calm - N/A   Clear
5:35 AM 22.5 °F - 21.4 °F 96% 30.21 in 7.0 mi Calm Calm - N/A   Clear
5:55 AM 22.3 °F - 21.2 °F 96% 30.21 in 7.0 mi Calm Calm - N/A   Clear
6:15 AM 21.9 °F - 20.8 °F 96% 30.22 in 7.0 mi Calm Calm - N/A   Clear
6:35 AM 20.7 °F - 19.4 °F 95% 30.22 in 7.0 mi Calm Calm - N/A   Clear
6:55 AM 20.5 °F - 19.0 °F 94% 30.21 in 7.0 mi Calm Calm - N/A   Clear
7:15 AM 20.7 °F - 19.2 °F 94% 30.21 in 7.0 mi Calm Calm - N/A   Clear
7:35 AM 20.7 °F - 19.2 °F 94% 30.21 in 7.0 mi Calm Calm - N/A   Clear
7:55 AM 20.7 °F - 19.2 °F 94% 30.21 in 7.0 mi Calm Calm - N/A   Clear
8:15 AM 22.1 °F - 20.8 °F 95% 30.19 in 7.0 mi Calm Calm - N/A   Clear
8:35 AM 25.5 °F - 24.3 °F 95% 30.19 in 5.0 mi Calm Calm - N/A   Clear
8:55 AM 28.4 °F - 27.3 °F 96% 30.19 in 5.0 mi Calm Calm - N/A   Clear
9:15 AM 30.7 °F - 28.9 °F 93% 30.18 in 10.0 mi Calm Calm - N/A   Clear
9:34 AM 32.4 °F - 29.3 °F 88% 30.19 in 10.0 mi Calm Calm - N/A   Clear
9:55 AM 34.7 °F - 29.7 °F 82% 30.18 in 10.0 mi Calm Calm - N/A   Clear
10:15 AM 37.9 °F 35.5 °F 27.3 °F 66% 30.17 in 10.0 mi South 3.5 mph - N/A   Clear
10:35 AM 41.4 °F 36.8 °F 23.4 °F 49% 30.17 in 10.0 mi South 6.9 mph - N/A   Clear
10:55 AM 43.2 °F 39.7 °F 22.6 °F 44% 30.16 in 10.0 mi SSE 5.8 mph - N/A   Clear
11:15 AM 45.0 °F 41.2 °F 21.9 °F 40% 30.15 in 10.0 mi SW 6.9 mph - N/A   Clear
11:35 AM 46.0 °F 42.5 °F 19.6 °F 35% 30.15 in 10.0 mi SSW 6.9 mph - N/A   Clear
11:55 AM 47.7 °F - 16.0 °F 28% 30.14 in 10.0 mi SSW 6.9 mph - N/A   Clear
12:15 PM 48.9 °F - 17.8 °F 29% 30.13 in 10.0 mi South 6.9 mph - N/A   Clear
12:35 PM 50.0 °F - 16.0 °F 26% 30.12 in 10.0 mi South 4.6 mph - N/A   Clear
12:54 PM 50.9 °F - 19.0 °F 28% 30.12 in 10.0 mi SSW 9.2 mph 18.4 mph N/A   Clear
1:15 PM 52.2 °F - 19.8 °F 28% 30.11 in 10.0 mi Calm Calm - N/A   Clear
1:35 PM 52.7 °F - 19.6 °F 27% 30.09 in 10.0 mi WSW 10.4 mph - N/A   Clear
1:54 PM 53.6 °F - 19.4 °F 26% 30.07 in 10.0 mi WSW 8.1 mph - N/A   Clear
2:14 PM 54.1 °F - 22.6 °F 29% 30.07 in 10.0 mi WSW 12.7 mph - N/A   Clear
2:35 PM 53.1 °F - 26.2 °F 35% 30.06 in 10.0 mi SW 11.5 mph - N/A   Clear
2:55 PM 53.4 °F - 27.0 °F 36% 30.05 in 10.0 mi WSW 8.1 mph - N/A   Clear
3:15 PM 53.2 °F - 26.2 °F 35% 30.03 in 10.0 mi SW 6.9 mph - N/A   Clear
3:35 PM 54.3 °F - 26.8 °F 35% 30.02 in 10.0 mi Calm Calm - N/A   Clear
3:55 PM 55.4 °F - 24.8 °F 31% 30.01 in 10.0 mi SSW 6.9 mph - N/A   Clear
4:15 PM 54.5 °F - 26.4 °F 34% 30.00 in 10.0 mi West 9.2 mph - N/A   Clear
4:35 PM 54.0 °F - 28.0 °F 37% 29.99 in 10.0 mi West 6.9 mph - N/A   Clear
4:55 PM 55.4 °F - 27.3 °F 34% 29.98 in 10.0 mi SW 8.1 mph - N/A   Clear
5:15 PM 56.1 °F - 27.9 °F 34% 29.97 in 10.0 mi WSW 8.1 mph - N/A   Clear
5:35 PM 56.7 °F - 28.8 °F 34% 29.96 in 10.0 mi SW 5.8 mph - N/A   Clear
5:55 PM 56.1 °F - 29.7 °F 36% 29.96 in 10.0 mi South 10.4 mph 16.1 mph N/A   Clear
6:15 PM 56.5 °F - 29.7 °F 36% 29.95 in 10.0 mi South 11.5 mph 17.3 mph N/A   Scattered Clouds
6:35 PM 56.3 °F - 29.3 °F 36% 29.94 in 10.0 mi South 11.5 mph 18.4 mph N/A   Scattered Clouds
6:55 PM 56.3 °F - 28.8 °F 35% 29.94 in 10.0 mi SSW 10.4 mph 19.6 mph N/A   Clear
7:15 PM 55.6 °F - 28.8 °F 36% 29.94 in 10.0 mi SSW 10.4 mph 18.4 mph N/A   Clear
7:35 PM 54.5 °F - 29.5 °F 38% 29.93 in 10.0 mi South 11.5 mph 16.1 mph N/A   Clear
7:55 PM 53.1 °F - 30.6 °F 42% 29.93 in 10.0 mi South 8.1 mph - N/A   Scattered Clouds
8:15 PM 52.3 °F - 30.7 °F 44% 29.92 in 10.0 mi South 6.9 mph - N/A   Scattered Clouds
8:35 PM 51.8 °F - 30.2 °F 44% 29.92 in 10.0 mi South 4.6 mph - N/A   Scattered Clouds
8:54 PM 50.9 °F - 30.7 °F 46% 29.92 in 10.0 mi South 4.6 mph - N/A   Scattered Clouds
9:15 PM 48.7 °F - 32.0 °F 52% 29.92 in 10.0 mi South 4.6 mph - N/A   Scattered Clouds
9:35 PM 48.6 °F - 32.5 °F 54% 29.92 in 10.0 mi South 4.6 mph - N/A   Scattered Clouds
9:55 PM 49.1 °F - 32.2 °F 52% 29.92 in 10.0 mi South 4.6 mph - N/A   Mostly Cloudy
10:15 PM 48.4 °F - 32.9 °F 55% 29.92 in 10.0 mi South 4.6 mph - N/A   Overcast
10:35 PM 48.2 °F - 33.1 °F 56% 29.91 in 10.0 mi South 4.6 mph - N/A   Overcast
10:55 PM 48.6 °F - 32.5 °F 54% 29.91 in 10.0 mi South 3.5 mph - N/A   Overcast
11:15 PM 49.3 °F - 32.0 °F 51% 29.90 in 10.0 mi South 4.6 mph - N/A   Overcast
11:34 PM 49.5 °F - 32.0 °F 51% 29.89 in 10.0 mi SSW 4.6 mph - N/A   Overcast
11:55 PM 49.3 °F - 32.4 °F 52% 29.89 in 10.0 mi South 3.5 mph - N/A   Light Drizzle